Goldsboro, NC

1:06 PM EDT on April 26, 2017 (GMT -0400)
Seymour Johnson Air Force Base

Weather History for KGSB - October, 2012

Change the Weather History Date:

Saturday, October 6, 2012

  Actual Average Record
Temperature  
Mean Temperature 70 °F -  
Max Temperature 85 °F 75 °F 95 °F (1997)
Min Temperature 56 °F 55 °F 44 °F (2010)
Cooling Degree Days 6    
Growing Degree Days 20 (Base 50)    
Moisture  
Dew Point 60 °F    
Average Humidity 73    
Maximum Humidity 96    
Minimum Humidity 39    
Precipitation  
Precipitation 0.00 in - - ()
Sea Level Pressure  
Sea Level Pressure 29.94 in    
Wind  
Wind Speed 3 mph (West)    
Max Wind Speed 15 mph    
Max Gust Speed 21 mph    
Visibility 10 miles    
Events      
Averages and records for this station are not official NWS values.
T = Trace of Precipitation, MM = Missing Value Source: NWS Daily Summary

Daily Weather History Graph

Daily Weather History Graph

Search for Another Location

Airport or City:

Trip Planner

Search our weather history database for the weather conditions in past years. The results will help you decide how hot, cold, wet, or windy it might be!

Date:

Astronomy

Oct. 06, 2012 Rise Set
Actual Time 7:11 AM EDT 6:48 PM EDT
Civil Twilight 6:45 AM EDT 7:13 PM EDT
Nautical Twilight 6:16 AM EDT 7:42 PM EDT
Astronomical Twilight 5:46 AM EDT 8:12 PM EDT
Moon 11:11 PM EDT (10/6) 12:54 PM EDT (10/6)
Length of Visible Light 12h 27m
Length of Day
11h 36m
Waning Gibbous, 65% of the Moon is Illuminated
Oct 6
Waning Gibbous
Oct 8
Last Quarter
Oct 15
New
Oct 21
First Quarter
Oct 29
Full

Hourly Weather History & Observations

Time (EDT) Temp. Heat Index Dew Point Humidity Pressure Visibility Wind Dir Wind Speed Gust Speed Precip Events Conditions
12:55 AM 59.5 °F - 57.9 °F 94% 30.01 in 10.0 mi Calm Calm - N/A   Clear
1:55 AM 59.4 °F - 58.1 °F 96% 30.01 in 10.0 mi Calm Calm - N/A   Clear
2:55 AM 59.9 °F - 58.8 °F 96% 29.99 in 10.0 mi Calm Calm - N/A   Clear
3:55 AM 58.1 °F - 56.8 °F 96% 29.97 in 10.0 mi Calm Calm - N/A   Clear
4:55 AM 56.7 °F - 55.4 °F 96% 29.97 in 10.0 mi Calm Calm - N/A   Clear
5:55 AM 56.5 °F - 54.5 °F 93% 29.97 in 10.0 mi Calm Calm - N/A   Clear
6:55 AM 57.4 °F - 55.2 °F 92% 29.98 in 10.0 mi Calm Calm - N/A   Clear
7:55 AM 57.9 °F - 56.3 °F 94% 29.97 in 10.0 mi Calm Calm - N/A   Clear
8:55 AM 66.2 °F - 63.5 °F 91% 29.98 in 10.0 mi WSW 4.6 mph - N/A   Partly Cloudy
9:55 AM 72.3 °F - 65.7 °F 79% 29.98 in 10.0 mi WSW 10.4 mph - N/A   Partly Cloudy
10:55 AM 78.3 °F - 65.8 °F 65% 29.97 in 10.0 mi WSW 10.4 mph - N/A   Clear
11:55 AM 81.1 °F 82.8 °F 64.4 °F 57% 29.95 in 10.0 mi SW 10.4 mph - N/A   Clear
12:55 PM 82.4 °F 82.7 °F 60.4 °F 47% 29.92 in 10.0 mi West 10.4 mph - N/A   Partly Cloudy
1:55 PM 85.3 °F 84.4 °F 57.7 °F 39% 29.89 in 10.0 mi West 12.7 mph 20.7 mph N/A   Partly Cloudy
2:55 PM 85.5 °F 85.0 °F 59.2 °F 41% 29.88 in 10.0 mi West 13.8 mph 19.6 mph N/A   Clear
3:55 PM 85.1 °F 84.4 °F 58.1 °F 40% 29.88 in 10.0 mi West 15.0 mph - N/A   Clear
4:55 PM 83.8 °F 83.4 °F 58.6 °F 42% 29.87 in 10.0 mi West 10.4 mph - N/A   Clear
5:55 PM 82.6 °F 82.8 °F 60.1 °F 46% 29.88 in 10.0 mi West 6.9 mph - N/A   Clear
6:55 PM 77.9 °F - 61.9 °F 58% 29.90 in 10.0 mi Calm Calm - N/A   Clear
7:55 PM 72.5 °F - 63.0 °F 72% 29.91 in 10.0 mi Calm Calm - N/A   Clear
8:55 PM 69.8 °F - 63.0 °F 79% 29.92 in 10.0 mi Calm Calm - N/A   Clear
9:55 PM 68.9 °F - 62.8 °F 81% 29.94 in 10.0 mi NNW 4.6 mph - N/A   Partly Cloudy
10:55 PM 69.6 °F - 63.1 °F 80% 29.94 in 10.0 mi Calm Calm - N/A   Clear
11:55 PM 68.9 °F - 63.1 °F 82% 29.94 in 10.0 mi Calm Calm - N/A   Scattered Clouds